K4MGY-13 Weather Reports


time (UTC)temp
F
wind
direction
speed
knots
gust
knots
rain 1hr
in
rain 24hr
in
rain mn
in
humidity
%
barometer
mb
20260510083116 63 276 1.7 4.3 0.00 0.00 0.00 85 1013.5
20260510082546 63 262 1.7 2.6 0.00 0.00 0.00 85 1013.3
20260510082016 63 271 1.7 2.6 0.00 0.00 0.00 85 1013.2
20260510081516 63 256 2.6 4.3 0.00 0.00 0.00 85 1013.4
20260510080947 63 319 0.9 4.3 0.00 0.00 0.00 85 1013.0
20260510080416 63 310 1.7 4.3 0.00 0.00 0.00 85 1013.1
20260510075849 63 240 0.9 2.6 0.00 0.00 0.00 85 1013.1
20260510075346 62 240 2.6 4.3 0.00 0.00 0.00 86 1012.9
20260510074821 62 244 0.9 1.7 0.00 0.00 0.00 85 1013.0
20260510074246 62 226 1.7 2.6 0.00 0.00 0.00 85 1012.9
20260510073748 63 201 0.9 1.7 0.00 0.00 0.00 84 1012.9
20260510071649 63 195 0.9 2.6 0.00 0.00 0.00 83 1012.7
20260510071116 63 218 1.7 2.6 0.00 0.00 0.00 83 1012.8
20260510070616 63 222 2.6 4.3 0.00 0.00 0.00 82 1012.7
20260510070047 63 229 2.6 4.3 0.00 0.00 0.00 81 1012.8
20260510065518 63 221 2.6 4.3 0.00 0.00 0.00 81 1012.7
20260510065016 63 206 2.6 4.3 0.00 0.00 0.00 80 1012.7
20260510064446 63 199 1.7 2.6 0.00 0.00 0.00 78 1012.9
20260510063946 63 214 1.7 2.6 0.00 0.00 0.00 78 1012.7
20260510063416 63 216 1.7 1.7 0.00 0.00 0.00 77 1012.9
20260510062916 63 216 1.7 2.6 0.00 0.00 0.00 76 1012.9
20260510062416 62 210 1.7 4.3 0.00 0.00 0.00 76 1012.9
20260510061846 62 197 1.7 2.6 0.00 0.00 0.00 74 1012.9
20260510061316 62 179 0.9 1.7 0.00 0.00 0.00 72 1012.9
20260510060816 62 193 1.7 2.6 0.00 0.00 0.00 69 1012.6
20260510060316 62 190 1.7 1.7 0.00 0.00 0.00 68 1013.1
20260510055819 62 193 0.9 1.7 0.00 0.00 0.00 68 1012.9
20260510055246 62 205 1.7 1.7 0.00 0.00 0.00 68 1012.9
20260510054146 62 150 0.0 0.9 0.00 0.00 0.00 68 1013.0
20260510053646 61 144 0.0 0.9 0.00 0.00 0.00 68 1013.0
20260510052116 62 149 0.9 0.9 0.00 0.00 0.00 67 1013.1
20260510051616 62 186 0.9 1.7 0.00 0.00 0.00 68 1013.2
20260510051046 62 134 0.0 0.9 0.00 0.00 0.00 67 1013.1
20260510050516 62 211 0.9 1.7 0.00 0.00 0.00 67 1012.9
20260510050018 62 60 0.0 0.9 0.00 0.00 0.00 67 1012.9
20260510045516 62 213 1.7 2.6 0.00 0.00 0.00 66 1012.9
20260510044446 62 168 0.9 1.7 0.00 0.00 0.00 65 1012.9
20260510043946 62 142 0.9 1.7 0.00 0.00 0.00 65 1012.9
20260510043446 62 151 0.9 0.9 0.00 0.00 0.00 65 1012.7
20260510042946 62 146 0.9 0.9 0.00 0.00 0.00 65 1012.7
20260510042446 63 143 0.9 1.7 0.00 0.00 0.00 64 1012.9
20260510041946 63 148 0.9 1.7 0.00 0.00 0.00 63 1012.5
20260510041446 63 146 0.9 0.9 0.00 0.00 0.00 63 1012.7
20260510040945 63 134 0.9 0.9 0.00 0.00 0.00 62 1012.7
20260510040446 64 137 0.0 0.0 0.00 0.00 0.00 64 1012.9
20260510034317 65 146 0.9 0.9 0.00 0.00 0.00 58 1012.5
20260510033316 65 170 0.9 0.9 0.00 0.00 0.00 58 1012.4
20260510032815 65 186 0.9 1.7 0.00 0.00 0.00 58 1012.5
20260510032246 66 146 0.9 0.9 0.00 0.00 0.00 57 1012.5
20260510031716 66 163 0.9 1.7 0.00 0.00 0.00 56 1012.5
20260510031216 65 161 0.9 0.9 0.00 0.00 0.00 57 1012.5
20260510030717 65 158 0.9 1.7 0.00 0.00 0.00 57 1012.4
20260510030145 65 154 0.9 1.7 0.00 0.00 0.00 59 1012.5
20260510025645 66 153 0.9 1.7 0.00 0.00 0.00 58 1012.2
20260510025116 66 141 0.9 0.9 0.00 0.00 0.00 58 1012.1
20260510024617 66 143 0.0 0.0 0.00 0.00 0.00 58 1012.1
20260510024046 67 164 0.0 0.9 0.00 0.00 0.00 57 1011.9
20260510023545 68 129 0.0 0.0 0.00 0.00 0.00 54 1011.9
20260510023045 68 232 0.0 0.0 0.00 0.00 0.00 53 1011.9
20260510022546 68 222 0.9 0.9 0.00 0.00 0.00 53 1011.9
20260510022045 68 247 0.0 0.9 0.00 0.00 0.00 53 1011.9
20260510021515 68 172 0.0 0.0 0.00 0.00 0.00 52 1011.5
20260510021016 69 250 0.9 1.7 0.00 0.00 0.00 52 1011.3
20260510020446 69 289 0.0 0.9 0.00 0.00 0.00 52 1011.5
20260510015916 69 353 0.0 0.9 0.00 0.00 0.00 53 1011.3
20260510015348 69 51 0.0 0.9 0.00 0.00 0.00 52 1011.2
20260510014847 69 262 0.0 0.9 0.00 0.00 0.00 51 1011.2
20260510014315 70 44 0.0 0.0 0.00 0.00 0.00 52 1011.0
20260510013815 71 284 0.0 0.0 0.00 0.00 0.00 50 1011.0
20260510013315 71 243 0.0 0.0 0.00 0.00 0.00 49 1010.8
20260510012749 71 224 0.0 0.0 0.00 0.00 0.00 49 1010.7
20260510012218 72 218 0.0 0.0 0.00 0.00 0.00 49 1010.7
20260510011715 72 200 0.0 0.0 0.00 0.00 0.00 47 1010.6
20260510011216 73 230 0.0 0.9 0.00 0.00 0.00 46 1010.5
20260510010645 73 270 0.9 0.9 0.00 0.00 0.00 47 1010.6
20260510010145 73 241 0.0 0.9 0.00 0.00 0.00 47 1010.2
20260510005616 73 266 0.0 0.0 0.00 0.00 0.00 47 1010.2
20260510005115 74 280 0.0 0.9 0.00 0.00 0.00 46 1010.2
20260510004615 75 267 0.9 0.9 0.00 0.00 0.00 45 1010.0
20260510004045 76 279 0.9 1.7 0.00 0.00 0.00 43 1010.2
20260510003515 77 299 0.9 1.7 0.00 0.00 0.00 42 1009.8
20260510003016 77 285 0.9 0.9 0.00 0.00 0.00 40 1009.8
20260510002446 79 285 0.9 1.7 0.00 0.00 0.00 38 1009.8
20260510001946 79 233 0.0 0.9 0.00 0.00 0.00 38 1009.3
20260510001445 80 89 0.0 0.0 0.00 0.00 0.00 37 1009.5
20260510000916 80 271 0.0 0.9 0.00 0.00 0.00 36 1009.7
20260510000419 81 271 0.9 1.7 0.00 0.00 0.00 36 1009.6
20260509235917 81 243 0.9 1.7 0.00 0.00 0.00 36 1009.5
20260509235345 82 224 0.9 1.7 0.00 0.00 0.00 36 1009.3
20260509234315 82 256 0.9 1.7 0.00 0.00 0.00 34 1009.3
20260509233747 81 302 0.0 1.7 0.00 0.00 0.00 35 1009.5
20260509233216 81 275 1.7 1.7 0.00 0.00 0.00 34 1009.3
20260509232715 81 163 0.0 0.9 0.00 0.00 0.00 35 1009.1
20260509232145 82 301 1.7 2.6 0.00 0.00 0.00 35 1009.1
20260509231646 81 247 0.9 2.6 0.00 0.00 0.00 35 1009.1
20260509231145 81 260 0.0 1.7 0.00 0.00 0.00 35 1009.1
20260509230648 81 281 1.7 2.6 0.00 0.00 0.00 35 1009.1
20260509230145 80 256 1.7 1.7 0.00 0.00 0.00 36 1009.0
20260509225646 79 313 0.9 1.7 0.00 0.00 0.00 38 1009.1
20260509225146 78 254 0.9 1.7 0.00 0.00 0.00 38 1009.1
20260509224615 78 298 1.7 2.6 0.00 0.00 0.00 37 1009.0
20260509224047 80 290 1.7 4.3 0.00 0.00 0.00 36 1009.0
20260509223545 81 245 1.7 2.6 0.00 0.00 0.00 37 1008.8
20260509223015 82 220 0.0 0.0 0.00 0.00 0.00 39 1008.8
20260509222515 81 211 0.0 0.9 0.00 0.00 0.00 41 1009.0
20260509221945 79 224 0.9 1.7 0.00 0.00 0.00 43 1009.1
20260509221445 80 243 0.9 1.7 0.00 0.00 0.00 39 1009.0
20260509220915 81 201 0.9 0.9 0.00 0.00 0.00 40 1009.1
20260509220415 82 225 1.7 2.6 0.00 0.00 0.00 39 1008.8
20260509215846 82 221 0.9 1.7 0.00 0.00 0.00 41 1008.7
20260509215347 82 235 1.7 2.6 0.00 0.00 0.00 41 1009.0
20260509214845 82 242 1.7 4.3 0.00 0.00 0.00 40 1008.9
20260509213752 81 292 1.7 2.6 0.00 0.00 0.00 38 1009.1
20260509213215 82 246 1.7 4.3 0.00 0.00 0.00 39 1008.9
20260509212645 82 251 1.7 2.6 0.00 0.00 0.00 39 1008.7
20260509212115 82 302 1.7 4.3 0.00 0.00 0.00 37 1008.8
20260509211615 82 249 2.6 5.2 0.00 0.00 0.00 37 1008.5
20260509211045 82 11 0.9 1.7 0.00 0.00 0.00 41 1008.7
20260509210545 80 244 0.9 1.7 0.00 0.00 0.00 47 1008.8
20260509210015 80 72 0.0 0.0 0.00 0.00 0.00 49 1008.8
20260509205515 79 290 0.9 1.7 0.00 0.00 0.00 44 1008.8
20260509204945 79 294 1.7 2.6 0.00 0.00 0.00 44 1009.0
20260509204415 79 248 0.9 0.9 0.00 0.00 0.00 48 1008.8
20260509203845 79 284 1.7 2.6 0.00 0.00 0.00 48 1008.9
20260509203345 77 228 0.0 1.7 0.00 0.00 0.00 53 1009.0
20260509202815 78 159 0.0 0.0 0.00 0.00 0.00 51 1008.8
20260509201745 76 292 0.9 1.7 0.00 0.00 0.00 51 1009.1
20260509200716 76 89 0.0 1.7 0.00 0.00 0.00 52 1009.1
20260509200216 76 273 0.0 0.9 0.00 0.00 0.00 52 1009.1
20260509195647 76 313 0.0 1.7 0.00 0.00 0.00 52 1009.3
20260509195118 76 295 0.9 4.3 0.00 0.00 0.00 52 1009.5
20260509194545 76 266 1.7 2.6 0.00 0.00 0.00 51 1009.5
20260509194015 77 263 2.6 4.3 0.00 0.00 0.00 51 1009.1
20260509193445 78 241 1.7 2.6 0.00 0.00 0.00 48 1009.5
20260509192945 79 233 2.6 5.2 0.00 0.00 0.00 49 1009.5
20260509192445 78 221 1.7 4.3 0.00 0.00 0.00 49 1009.5
20260509191945 78 211 1.7 2.6 0.00 0.00 0.00 49 1009.5
20260509191445 78 218 1.7 2.6 0.00 0.00 0.00 52 1009.5
20260509190945 78 239 2.6 4.3 0.00 0.00 0.00 52 1009.8
20260509190445 77 293 1.7 4.3 0.00 0.00 0.00 53 1009.5
20260509185915 76 256 2.6 5.2 0.00 0.00 0.00 51 1009.8
20260509185415 76 296 0.9 4.3 0.00 0.00 0.00 52 1009.8
20260509184845 75 264 2.6 6.1 0.00 0.00 0.00 53 1009.8
20260509184318 75 248 0.9 2.6 0.00 0.00 0.00 52 1010.2
20260509183245 75 208 0.9 2.6 0.00 0.00 0.00 55 1010.0
20260509182717 75 42 1.7 2.6 0.00 0.00 0.00 53 1009.8
20260509182216 76 266 1.7 4.3 0.00 0.00 0.00 52 1009.7
20260509181645 75 209 0.9 2.6 0.00 0.00 0.00 56 1009.8
20260509181116 75 216 1.7 4.3 0.00 0.00 0.00 54 1009.8
20260509180545 74 47 1.7 4.3 0.00 0.00 0.00 56 1010.0
20260509180019 74 211 0.9 1.7 0.00 0.00 0.00 56 1009.6
20260509175515 75 170 0.9 1.7 0.00 0.00 0.00 55 1009.5
20260509174945 75 193 0.9 1.7 0.00 0.00 0.00 58 1009.5
20260509174415 75 176 0.9 1.7 0.00 0.00 0.00 57 1009.5
20260509173845 74 208 1.7 4.3 0.00 0.00 0.00 60 1009.6
20260509172746 73 238 1.7 2.6 0.00 0.00 0.00 59 1009.6
20260509172245 73 301 1.7 4.3 0.00 0.00 0.00 60 1009.8
20260509171745 72 178 0.0 0.9 0.00 0.00 0.00 61 1009.8
20260509170715 72 296 1.7 4.3 0.00 0.00 0.00 60 1010.0
20260509165645 71 280 0.9 4.3 0.00 0.00 0.00 60 1010.2
20260509164617 72 270 0.0 0.9 0.00 0.00 0.00 62 1010.2
20260509164046 72 324 2.6 4.3 0.00 0.00 0.00 63 1010.2
20260509163515 71 75 0.0 1.7 0.00 0.00 0.00 63 1010.4
20260509162945 71 226 1.7 2.6 0.00 0.00 0.00 64 1010.5
20260509162415 70 37 0.9 1.7 0.00 0.00 0.00 66 1010.5
20260509161915 70 240 1.7 2.6 0.00 0.00 0.00 64 1010.3
20260509161345 69 305 0.9 1.7 0.00 0.00 0.00 66 1010.5
20260509160845 69 256 1.7 4.3 0.00 0.00 0.00 67 1010.5
20260509160315 69 297 1.7 6.1 0.00 0.00 0.00 67 1010.5
20260509155815 69 321 1.7 2.6 0.00 0.00 0.00 66 1010.5
20260509155245 69 257 0.9 1.7 0.00 0.00 0.00 69 1010.5
20260509154747 68 256 1.7 4.3 0.00 0.00 0.00 69 1010.8
20260509154246 67 279 0.0 2.6 0.00 0.00 0.00 70 1010.6
20260509153745 67 35 1.7 2.6 0.00 0.00 0.00 71 1010.6
20260509153215 67 320 1.7 5.2 0.00 0.00 0.00 71 1010.7
20260509152717 66 294 0.0 1.7 0.00 0.00 0.00 72 1010.8
20260509152146 67 17 1.7 2.6 0.00 0.00 0.00 71 1010.6
20260509151645 66 291 0.9 2.6 0.00 0.00 0.00 73 1010.7
20260509151146 66 308 1.7 4.3 0.00 0.00 0.00 73 1010.8
20260509150145 66 249 1.7 4.3 0.00 0.00 0.00 73 1010.2
20260509145645 66 301 2.6 6.1 0.00 0.00 0.00 73 1010.4
20260509145145 65 195 0.9 2.6 0.00 0.00 0.00 74 1010.3
20260509144645 65 253 4.3 7.0 0.00 0.00 0.00 74 1010.2
20260509144145 65 299 0.9 4.3 0.00 0.00 0.00 75 1010.2
20260509143615 65 12 1.7 4.3 0.00 0.00 0.00 75 1010.2
20260509143115 65 248 1.7 4.3 0.00 0.00 0.00 75 1010.2
20260509142545 65 272 0.9 4.3 0.00 0.00 0.00 75 1010.2
20260509142045 65 309 4.3 7.0 0.00 0.00 0.00 75 1010.2
20260509141515 64 241 1.7 4.3 0.00 0.00 0.00 76 1010.2
20260509141015 64 233 2.6 4.3 0.00 0.00 0.00 76 1010.2
20260509140445 64 242 1.7 4.3 0.00 0.00 0.00 77 1010.2
20260509135415 63 245 4.3 7.0 0.00 0.00 0.00 78 1010.2
20260509134848 63 273 4.3 6.1 0.00 0.00 0.00 78 1010.2
20260509134315 62 222 2.6 4.3 0.00 0.00 0.00 80 1010.2
20260509133745 62 323 2.6 6.1 0.00 0.00 0.00 80 1010.2
20260509133216 62 159 1.7 4.3 0.00 0.00 0.00 81 1010.2
20260509132715 61 310 0.9 4.3 0.00 0.00 0.00 81 1010.4
20260509132217 61 194 2.6 5.2 0.00 0.00 0.00 83 1010.2
20260509131145 60 229 0.9 2.6 0.00 0.00 0.00 84 1010.3
20260509130645 60 184 0.9 1.7 0.00 0.00 0.00 84 1010.4
20260509130145 59 194 0.9 1.7 0.00 0.00 0.00 85 1010.3
20260509125645 59 155 1.7 2.6 0.00 0.00 0.00 85 1010.8
20260509125145 59 310 2.6 5.2 0.00 0.00 0.00 85 1010.7
20260509124615 58 111 1.7 4.3 0.00 0.00 0.00 86 1010.5
20260509124045 58 207 1.7 4.3 0.00 0.00 0.00 86 1010.5
20260509123045 58 191 2.6 5.2 0.00 0.00 0.00 87 1010.5
20260509122515 58 175 4.3 5.2 0.00 0.00 0.00 87 1010.6
20260509122015 57 190 1.7 4.3 0.00 0.00 0.00 88 1010.5
20260509121515 57 198 1.7 2.6 0.00 0.00 0.00 89 1010.8
20260509121016 57 171 0.9 1.7 0.00 0.00 0.00 89 1010.8
20260509120445 56 197 1.7 4.3 0.00 0.00 0.00 89 1010.2
20260509115917 56 186 1.7 4.3 0.00 0.00 0.00 90 1010.2
20260509115416 56 194 1.7 2.6 0.00 0.00 0.00 90 1010.5
20260509114915 56 139 2.6 4.3 0.00 0.00 0.00 90 1010.2
20260509114416 55 170 1.7 2.6 0.00 0.00 0.00 91 1009.8
20260509113915 55 169 1.7 4.3 0.00 0.00 0.00 91 1010.3
20260509113345 55 146 2.6 4.3 0.00 0.00 0.00 92 1010.2
20260509112844 54 214 2.6 4.3 0.00 0.00 0.00 92 1010.1
20260509112345 54 196 1.7 2.6 0.00 0.00 0.00 92 1010.0
20260509111815 53 181 0.9 2.6 0.00 0.00 0.00 93 1010.1
20260509111315 53 177 2.6 4.3 0.00 0.00 0.00 92 1010.0
20260509110815 53 156 1.7 2.6 0.00 0.00 0.00 91 1010.0
20260509110245 53 174 0.9 4.3 0.00 0.00 0.00 91 1010.2
20260509105715 53 89 1.7 2.6 0.00 0.00 0.00 90 1010.2
20260509105214 53 21 2.6 2.6 0.00 0.00 0.00 90 1010.2
20260509104715 54 116 1.7 2.6 0.00 0.00 0.00 90 1009.8
20260509104215 54 139 0.9 1.7 0.00 0.00 0.00 90 1009.8
20260509103714 54 241 1.7 2.6 0.00 0.00 0.00 90 1009.8
20260509103144 54 108 0.9 1.7 0.00 0.00 0.00 89 1009.8
20260509102615 54 175 2.6 4.3 0.00 0.00 0.00 89 1010.2
20260509102115 54 138 1.7 2.6 0.00 0.00 0.00 88 1010.2
20260509101615 54 161 0.9 1.7 0.00 0.00 0.00 89 1010.2
20260509101115 54 85 2.6 4.3 0.00 0.00 0.00 89 1010.2
20260509100615 54 189 2.6 4.3 0.00 0.00 0.00 89 1010.2
20260509100045 54 178 0.9 1.7 0.00 0.00 0.00 89 1010.2
20260509095515 54 165 1.7 1.7 0.00 0.00 0.00 88 1010.5
20260509094946 54 148 0.9 1.7 0.00 0.00 0.00 88 1010.5
20260509094415 54 186 0.9 1.7 0.00 0.00 0.00 87 1010.7
20260509093845 54 204 0.9 1.7 0.00 0.00 0.00 88 1010.5
20260509093345 54 152 1.7 1.7 0.00 0.00 0.00 88 1010.5
20260509092844 54 157 0.9 1.7 0.00 0.00 0.00 87 1010.5
20260509092344 54 146 0.9 1.7 0.00 0.00 0.00 86 1010.3
20260509091845 54 149 0.9 1.7 0.00 0.00 0.00 86 1010.5
20260509090816 55 139 0.9 1.7 0.00 0.00 0.00 86 1010.5
20260509090249 55 139 1.7 2.6 0.00 0.00 0.00 86 1010.7
20260509085715 55 145 1.7 2.6 0.00 0.00 0.00 86 1010.5
20260509085214 54 143 1.7 1.7 0.00 0.00 0.00 86 1010.5
20260509084644 54 137 1.7 2.6 0.00 0.00 0.00 86 1010.6
20260509084144 54 141 1.7 1.7 0.00 0.00 0.00 87 1010.8
20260509083616 54 142 0.9 1.7 0.00 0.00 0.00 87 1010.8